EHI
0 0 0 0 0 0 0 0 0 0 0 0 0 0 0 0 0 0 0 0 0 0 0 0 0 0 0 0 0 0 0 0 0 0 0 0 0 0 0 0 0 0 0
0 0 0 0 0 0 0 0 0 0 0 0 0 0 0 0 0 0 0 0 0 0 0 0 0 0 0 0 0 0 0 0 0 0 0 0 0 0 0 0 0 0 0
0 0 0 0 0 0 0 0 0 0 0 0 0 0 0 0 0 0 0 0 0 0 1 1 1 0 0 0 0 0 0 0 0 0 0 0 0 0 0 0 0 0 0
0 0 0 0 0 0 0 0 0 0 0 0 0 0 0 0 0 0 0 0 0 0 1 1 1 0 0 0 0 0 0 0 0 0 0 0 0 0 0 0 0 0 0
0 0 0 0 0 0 0 0 0 0 0 0 0 0 0 0 0 0 0 0 0 0 0 0 0 0 0 0 0 0 0 0 0 0 0 0 0 0 0 0 0 0 0
0 0 0 0 0 0 0 0 0 0 0 0 0 0 0 0 0 0 0 0 0 0 0 0 0 0 0 0 0 0 0 0 0 0 0 0 0 0 0 0 0 0 0
0 0 0 0 0 0 0 0 0 0 0 0 0 0 0 0 0 0 0 0 0 0 0 0 0 0 0 0 1 1 0 0 0 0 0 0 0 0 0 0 0 0 0
0 0 0 0 0 0 0 0 0 0 0 0 0 0 0 0 0 0 0 0 0 0 0 0 0 0 0 0 1 1 1 0 0 0 0 0 0 0 0 0 0 0 0
0 0 0 0 0 0 0 0 0 0 0 0 0 0 0 0 0 0 0 0 0 0 0 0 0 0 0 0 1 2 1 0 0 0 0 0 0 0 0 0 0 0 0
0 0 0 0 0 0 0 0 0 0 0 0 0 0 0 0 0 0 0 0 0 0 0 0 0 0 0 0 1 1 1 0 0 0 0 0 0 0 0 0 0 0 0
0 0 0 0 0 0 0 0 0 0 0 0 0 0 0 0 0 0 0 0 0 0 0 0 0 0 0 0 0 0 0 0 0 0 0 0 0 0 0 0 0 0 0
0 0 0 0 0 0 0 0 0 0 0 0 0 0 0 0 0 0 0 0 0 0 0 0 0 0 0 0 0 0 0 0 0 0 0 0 0 0 0 0 0 0 0
0 0 0 0 0 0 0 0 0 0 0 0 0 0 0 0 0 0 0 0 0 0 0 0 0 0 0 0 0 0 0 0 0 0 0 0 0 0 0 0 0 0 0
0 0 0 0 0 0 0 0 0 0 0 0 0 0 0 0 0 0 0 0 0 0 0 0 0 0 0 0 0 0 0 0 0 0 0 0 0 0 0 0 0 0 0
0 0 0 0 0 0 0 0 0 0 0 0 0 0 0 0 0 0 0 0 0 0 0 0 0 0 0 0 0 0 0 0 0 0 0 0 0 0 0 0 0 0 0
0 0 0 0 0 0 0 0 0 0 0 0 0 0 0 0 0 0 0 0 0 0 0 0 0 0 0 0 0 0 0 0 0 0 0 0 0 0 0 0 0 0 0
0 0 0 0 0 0 0 0 0 0 0 0 0 0 0 0 0 0 0 0 0 0 0 0 0 0 0 0 0 0 0 0 0 0 0 0 0 0 0 0 0 0 0
0 0 0 0 0 0 0 0 0 0 0 0 0 0 0 0 0 0 0 0 0 0 0 0 0 0 0 0 0 0 0 0 0 0 0 0 0 0 0 0 0 0 0
0 0 0 0 0 0 0 0 0 0 0 0 0 0 0 0 0 0 0 0 0 0 0 0 0 0 0 0 0 0 0 0 0 0 0 0 0 0 0 0 0 0 0
0 0 0 0 0 0 0 0 0 0 0 0 0 0 0 0 0 0 0 0 0 0 0 0 0 0 0 0 0 0 0 0 0 0 0 0 0 0 0 0 0 0 0
0 0 0 0 0 0 0 0 0 0 0 0 0 0 0 0 0 0 0 0 0 0 0 0 0 0 0 0 0 0 0 0 0 0 0 0 0 0 0 0 0 0 0
0 0 0 0 0 0 0 0 0 0 0 0 0 0 0 0 0 0 0 0 0 0 0 0 0 0 0 0 0 0 0 0 0 0 0 0 0 0 0 0 0 0 0
0 0 0 0 0 0 0 0 0 0 0 0 0 0 0 0 0 0 0 0 0 0 0 0 0 0 0 0 0 0 0 0 0 0 0 0 0 0 0 0 0 0 0
0 0 0 0 0 0 0 0 0 0 0 0 0 0 0 0 0 0 0 0 0 0 0 0 0 0 0 0 0 0 0 0 0 0 0 0 0 0 0 0 0 0 0
0 0 0 0 0 0 0 0 0 0 0 0 0 0 0 0 0 0 0 0 0 0 0 0 0 0 0 0 0 0 0 0 0 0 0 0 0 0 0 0 0 0 0
0 0 0 0 0 0 0 0 0 0 0 0 0 0 0 0 0 0 0 0 0 0 0 0 0 0 0 0 0 0 0 0 0 0 0 0 0 0 0 0 0 0 0
Wind_Speed
3 5 6 6 7 7 7 7 7 7 6 4 4 4 4 4 4 3 4 4 4 4 4 4 5 5 5 6 6 4 3 2 2 2 1 2 1 2 3 4 4 5 5
5 6 6 6 7 7 7 7 7 7 6 4 4 3 4 4 4 3 4 4 4 4 4 5 5 5 5 5 6 5 3 2 3 3 3 1 1 1 1 2 4 5 4
4 5 6 6 6 7 7 7 7 8 7 6 4 4 3 3 3 4 3 4 4 4 4 4 4 5 6 6 7 6 6 4 3 3 4 4 4 2 1 1 2 4 4
3 4 5 6 7 7 7 7 7 7 7 6 5 5 4 4 4 4 4 5 4 4 4 3 4 4 4 5 6 6 5 5 4 2 2 2 3 4 2 0 0 2 3
3 4 4 5 6 7 7 7 7 7 8 7 6 5 4 4 4 4 5 4 4 4 4 3 3 4 4 5 6 5 6 5 5 4 3 2 1 2 3 2 1 1 1
3 4 4 5 5 6 6 7 7 7 8 8 7 6 6 6 5 5 5 4 3 3 3 3 3 3 3 4 5 5 7 6 6 5 4 4 4 3 3 3 2 2 1
3 4 5 6 6 7 7 7 8 8 8 8 7 7 7 6 5 5 5 4 3 3 3 3 3 3 3 4 4 5 5 6 7 6 5 4 4 3 4 3 3 2 1
2 3 4 5 5 6 7 7 7 7 8 8 8 7 7 5 4 5 4 4 3 3 4 3 2 3 3 4 4 4 5 5 6 7 6 4 4 3 4 4 4 3 1
2 3 4 4 5 6 6 6 6 7 8 8 7 7 7 6 6 6 5 4 4 3 4 2 1 1 2 3 4 3 4 4 5 5 6 4 4 4 3 3 4 5 4
3 3 4 4 4 4 5 5 5 6 6 7 6 6 7 7 7 6 7 6 6 5 5 4 3 2 1 1 2 2 3 4 3 4 5 4 3 3 3 4 3 3 4
3 3 4 4 4 4 4 4 5 5 6 7 6 7 7 7 7 6 7 7 6 6 6 5 4 4 3 2 1 1 2 3 3 3 5 5 5 4 3 4 4 3 4
3 4 4 4 4 4 4 4 4 5 5 5 6 7 7 7 7 7 7 7 7 6 6 5 5 4 4 3 2 1 1 3 3 3 4 4 4 5 4 3 4 4 4
3 3 3 3 4 3 3 3 4 4 4 5 5 6 7 7 7 7 7 7 7 7 7 6 6 5 4 3 2 2 1 2 2 2 3 4 5 5 4 4 4 3 3
3 3 3 3 3 2 2 2 3 3 3 4 5 6 6 6 6 6 7 7 7 7 7 6 6 5 4 4 3 3 3 3 2 2 2 3 4 5 5 4 4 4 4
3 3 2 3 2 2 2 2 2 3 3 3 4 5 5 6 6 7 7 7 7 7 6 6 7 6 5 4 4 3 4 4 4 3 2 3 4 5 4 4 4 5 4
4 3 2 2 2 2 2 1 1 2 2 3 3 4 5 6 6 6 6 7 7 7 7 7 7 7 6 8 8 6 4 4 4 4 3 3 4 5 6 7 7 7 6
4 4 3 3 3 3 3 2 1 1 2 2 3 4 4 5 6 6 6 6 6 6 7 7 7 7 7 10 10 9 6 5 4 4 3 3 4 5 5 7 8 6 6
5 3 2 2 2 2 2 1 1 1 2 2 2 3 4 4 5 5 6 5 4 5 5 6 7 7 9 12 12 11 7 6 5 4 4 4 4 4 6 7 7 6 5
6 4 3 3 2 2 3 3 2 2 2 1 1 2 2 3 4 5 5 4 4 5 5 5 7 7 8 12 12 10 5 5 6 5 5 4 4 7 9 8 8 7 6
5 4 3 3 3 3 4 4 2 2 1 1 1 1 2 2 3 4 3 3 3 4 4 6 6 7 7 11 12 10 4 5 4 5 5 7 6 8 9 7 7 7 4
6 5 4 3 3 4 5 4 3 3 3 2 0 1 2 1 2 3 3 3 3 4 5 5 6 7 8 10 12 10 4 4 4 4 4 3 7 8 8 7 5 7 6
6 5 4 4 3 4 5 5 4 4 3 2 1 0 1 1 2 3 3 3 4 4 4 4 5 5 6 8 9 11 9 6 5 4 3 4 8 9 9 7 8 10 8
7 5 5 5 4 5 6 6 5 4 3 2 1 1 0 1 2 2 2 3 3 3 2 3 3 3 4 6 11 11 10 9 5 3 6 7 9 9 7 9 10 8 5
7 6 6 5 5 5 6 6 6 5 4 3 2 2 2 1 1 1 1 2 2 2 2 2 2 2 3 4 4 4 4 6 5 4 6 9 10 8 7 7 6 4 4
6 6 6 7 7 6 6 6 6 6 5 4 3 3 3 3 2 1 0 0 1 1 1 1 1 1 1 3 3 2 2 2 2 2 3 4 3 4 4 4 4 3 3
7 7 7 7 7 7 7 6 6 6 6 4 4 3 3 3 2 2 1 2 2 1 1 2 2 1 2 2 3 3 3 3 4 4 3 3 3 3 3 3 3 2 3
Wind_Direction
348 355 358 356 353 350 348 343 341 336 335 328 324 316 312 303 296 285 276 269 260 247 230 230 216 202 198 200 193 183 186 185 147 116 62 11 32 165 178 182 172 185 189
353 350 355 356 349 345 343 341 338 331 328 317 301 283 287 286 282 287 289 275 267 254 244 226 216 208 203 201 199 183 173 181 159 146 125 90 348 331 191 174 174 179 180
351 345 350 347 345 344 339 338 330 329 326 323 317 316 312 307 311 309 299 288 278 264 251 233 219 211 202 204 204 190 177 177 178 160 150 159 197 218 312 191 171 165 167
349 343 345 342 338 333 332 330 329 328 328 329 330 328 322 307 292 289 285 291 284 273 257 238 223 215 207 206 207 194 183 167 172 174 181 168 157 150 167 316 137 159 170
352 348 339 329 328 331 335 333 332 332 333 334 331 326 321 305 300 303 301 299 291 276 266 249 229 220 213 212 210 197 186 178 175 171 163 155 123 124 140 166 169 117 171
347 340 332 333 332 334 336 336 337 333 335 338 339 337 331 327 331 328 319 313 304 288 279 260 237 223 214 211 211 202 196 192 184 180 170 162 161 169 152 150 162 171 207
341 334 337 339 335 336 336 336 340 338 339 342 343 340 335 334 334 324 318 320 317 310 296 275 241 225 218 211 205 201 201 197 190 188 185 179 177 156 151 146 151 157 175
323 325 323 326 327 331 332 335 341 339 340 344 343 340 340 338 333 328 325 321 312 299 297 294 265 235 219 212 202 202 204 200 199 197 186 179 181 167 161 158 151 149 159
310 309 314 319 322 327 326 329 336 338 340 343 342 346 348 348 343 340 338 330 328 328 334 329 299 253 220 208 199 201 200 196 199 195 186 179 183 181 175 163 157 156 165
305 304 308 307 311 318 320 331 338 335 335 345 350 353 348 350 352 357 0 357 354 357 359 3 9 10 351 202 194 196 196 184 188 186 175 176 173 180 183 180 168 160 155
268 277 289 296 305 321 330 340 343 343 346 349 349 352 353 352 357 5 4 2 5 10 15 15 19 25 18 26 71 201 179 171 176 176 179 183 173 179 182 175 167 167 152
250 262 281 301 317 323 328 339 342 346 344 347 353 356 357 0 5 6 2 5 9 11 17 22 23 24 21 31 46 43 133 153 164 172 174 178 170 174 175 169 171 171 161
257 270 292 299 305 310 317 329 337 339 345 356 3 3 2 4 8 6 5 6 11 17 21 25 26 22 20 33 39 55 86 114 134 157 167 171 161 163 161 161 163 159 151
247 264 284 284 289 293 301 321 334 335 351 7 13 10 2 2 5 7 10 11 16 23 24 26 24 22 23 32 46 62 69 78 80 101 131 145 155 159 157 159 160 151 141
241 245 257 267 275 275 290 311 334 343 3 19 17 7 0 5 10 13 13 14 20 25 22 25 22 17 21 35 45 55 74 74 70 68 87 112 128 149 158 154 152 147 143
227 236 247 254 256 242 242 277 334 348 26 33 14 5 11 13 11 11 13 18 20 19 22 25 23 21 24 36 46 58 68 72 73 67 63 80 95 114 123 134 146 152 151
213 219 233 239 241 228 208 210 241 28 47 37 14 7 14 17 9 12 17 17 17 21 24 22 23 20 18 37 55 61 67 67 61 61 62 74 82 87 93 99 103 106 121
201 210 224 235 229 204 184 168 119 72 63 43 14 3 12 13 7 12 14 10 16 23 23 22 21 23 29 46 57 63 65 63 55 50 58 73 70 85 101 98 90 80 75
194 198 200 191 182 177 162 132 112 87 74 47 2 345 1 11 11 9 4 5 21 27 24 22 25 28 26 40 52 60 62 63 54 45 49 66 78 93 100 99 99 90 76
182 181 174 162 162 171 145 130 135 131 150 226 287 325 357 16 12 3 4 11 29 32 32 34 29 30 27 33 46 56 65 66 55 43 39 55 81 95 99 102 106 103 91
185 174 167 172 184 171 146 142 163 192 213 211 231 1 4 18 24 16 20 29 37 39 36 35 28 28 24 27 38 49 60 68 66 55 39 43 79 92 97 97 101 114 111
185 176 174 192 194 175 156 162 195 214 208 191 179 357 358 16 62 46 33 37 46 48 36 34 28 19 15 22 32 46 57 68 76 62 39 51 71 84 96 96 103 105 99
191 186 182 193 201 191 174 179 209 204 189 180 197 208 73 52 72 76 57 40 42 54 43 42 35 11 5 14 30 40 49 55 65 58 61 66 69 73 80 94 101 99 97
194 191 182 190 206 207 201 199 198 189 179 189 208 197 172 143 81 71 75 71 49 53 55 59 46 17 8 7 6 13 26 38 48 47 54 62 66 66 69 73 74 79 100
196 187 189 199 210 207 209 209 196 180 183 198 207 199 190 179 169 149 118 155 228 205 175 190 181 113 3 327 349 19 18 18 37 67 56 53 55 61 58 58 63 69 85
194 193 198 204 209 203 209 210 196 183 182 196 206 202 197 193 186 183 242 308 260 272 213 202 192 234 247 298 359 18 27 48 85 88 78 80 87 95 94 89 75 70 85